GW3562 Weather Reports


time (UTC)temp
F
wind
direction
speed
knots
gust
knots
rain 1hr
in
rain 24hr
in
rain mn
in
humidity
%
barometer
mb
20260510123145 53 327 0.0 2.6 0.00 0.04 0.04 89 1012.6
20260510123006 53 320 0.0 3.5 0.00 0.04 0.04 89 1012.6
20260510122623 53 345 0.9 3.5 0.00 0.04 0.04 89 1012.8
20260510122125 53 102 0.0 3.5 0.00 0.04 0.04 89 1013.0
20260510121629 53 75 0.0 5.2 0.00 0.04 0.04 88 1013.0
20260510121531 53 294 0.0 5.2 0.00 0.04 0.04 88 1013.0
20260510121132 53 237 0.9 5.2 0.00 0.04 0.04 88 1012.8
20260510120629 53 332 0.0 6.1 0.00 0.04 0.04 89 1012.9
20260510120142 53 148 0.0 6.1 0.00 0.04 0.04 89 1012.7
20260510120039 53 341 0.0 6.1 0.00 0.04 0.04 89 1012.8
20260510115628 53 76 0.0 2.6 0.00 0.04 0.04 90 1012.6
20260510115127 53 73 0.0 0.0 0.00 0.04 0.04 90 1012.7
20260510114640 53 111 0.0 2.6 0.00 0.04 0.04 91 1012.7
20260510114508 52 112 0.0 2.6 0.00 0.04 0.04 91 1012.8
20260510114126 53 112 0.0 3.5 0.00 0.04 0.04 91 1012.7
20260510113625 53 353 1.7 3.5 0.00 0.04 0.04 91 1012.8
20260510113126 53 272 0.0 2.6 0.00 0.04 0.04 91 1012.2
20260510113029 52 272 0.0 2.6 0.00 0.04 0.04 91 1012.2
20260510112622 53 299 0.0 3.5 0.00 0.04 0.04 91 1012.4
20260510112127 53 152 0.0 4.3 0.00 0.04 0.04 92 1012.4
20260510111624 52 240 0.9 4.3 0.00 0.04 0.04 92 1012.5
20260510111543 52 235 0.9 4.3 0.00 0.04 0.04 92 1012.6
20260510111119 52 146 0.9 4.3 0.00 0.04 0.04 93 1012.5
20260510110627 52 156 0.0 5.2 0.00 0.04 0.04 93 1012.4
20260510110143 51 187 0.9 5.2 0.00 0.04 0.04 94 1012.4
20260510110109 51 280 0.0 5.2 0.00 0.04 0.04 94 1012.5
20260510105616 51 349 0.0 2.6 0.00 0.04 0.04 95 1012.4
20260510104629 51 259 0.0 4.3 0.00 0.04 0.04 95 1011.8
20260510104555 50 138 0.0 4.3 0.00 0.04 0.04 95 1011.9
20260510104128 50 109 0.0 1.7 0.00 0.04 0.04 95 1011.9
20260510103614 50 280 0.0 2.6 0.00 0.04 0.04 96 1012.0
20260510103116 50 131 0.0 2.6 0.00 0.04 0.04 96 1012.0
20260510103050 50 177 0.0 2.6 0.00 0.04 0.04 96 1012.2
20260510102633 50 307 0.0 0.0 0.00 0.04 0.04 96 1012.1
20260510102107 50 306 0.0 0.0 0.00 0.04 0.04 96 1012.1
20260510101634 49 304 0.0 0.0 0.00 0.04 0.04 96 1012.1
20260510101523 49 304 0.0 0.0 0.00 0.04 0.04 96 1012.1
20260510101117 49 280 0.0 0.0 0.00 0.04 0.04 95 1011.6
20260510100617 49 278 0.0 0.0 0.00 0.04 0.04 95 1011.3
20260510100123 49 276 0.0 0.0 0.00 0.04 0.04 95 1011.0
20260510100019 48 276 0.0 0.0 0.00 0.04 0.04 95 1011.2
20260510095640 49 276 0.0 0.0 0.00 0.04 0.04 95 1011.3
20260510095125 49 275 0.0 0.9 0.00 0.04 0.04 95 1011.6
20260510094615 49 230 0.0 2.6 0.00 0.04 0.04 95 1011.6
20260510094541 49 230 0.0 2.6 0.00 0.04 0.04 95 1011.9
20260510094122 49 119 0.0 0.0 0.00 0.04 0.04 95 1011.5
20260510093627 49 137 0.0 0.0 0.00 0.04 0.04 95 1011.6
20260510093131 49 126 0.0 0.0 0.00 0.04 0.04 95 1011.4
20260510093047 49 142 0.0 0.0 0.00 0.04 0.04 95 1011.7
20260510092633 49 143 0.0 0.0 0.00 0.04 0.04 94 1011.3
20260510092126 49 140 0.0 0.0 0.00 0.04 0.04 95 1011.2
20260510091647 49 141 0.0 0.0 0.00 0.04 0.04 94 1011.1
20260510091538 49 141 0.0 0.0 0.00 0.04 0.04 94 1011.3
20260510091116 49 141 0.0 0.0 0.00 0.04 0.04 94 1011.1
20260510090621 49 141 0.0 0.0 0.01 0.04 0.04 94 1011.1
20260510090124 50 140 0.0 0.0 0.02 0.04 0.04 94 1011.1
20260510090016 49 140 0.0 0.0 0.02 0.04 0.04 93 1011.3
20260510085629 50 140 0.0 0.0 0.02 0.04 0.04 94 1010.8
20260510085120 50 137 0.0 0.0 0.02 0.04 0.04 94 1010.8
20260510084632 51 138 0.0 0.0 0.02 0.04 0.04 94 1010.8
20260510084502 50 138 0.0 0.0 0.02 0.04 0.04 94 1011.0
20260510084135 51 138 0.0 1.7 0.02 0.04 0.04 94 1010.7
20260510083629 51 196 0.0 1.7 0.02 0.04 0.04 94 1010.7
20260510083120 51 48 0.0 2.6 0.02 0.04 0.04 94 1010.9
20260510083046 51 48 0.0 2.6 0.02 0.04 0.04 93 1011.1
20260510082631 51 54 0.9 2.6 0.02 0.04 0.04 93 1010.8
20260510082128 51 287 0.0 0.0 0.03 0.04 0.04 93 1010.8
20260510081617 51 288 0.0 2.6 0.03 0.04 0.04 93 1010.8
20260510081553 51 288 0.0 2.6 0.03 0.04 0.04 93 1011.0
20260510081116 51 249 0.9 4.3 0.03 0.04 0.04 93 1011.0
20260510080645 51 320 0.9 4.3 0.03 0.03 0.03 93 1011.2
20260510080141 51 295 0.0 4.3 0.02 0.02 0.02 93 1011.2
20260510080029 51 249 0.0 4.3 0.02 0.02 0.02 93 1011.5
20260510075641 51 171 0.0 2.6 0.02 0.02 0.02 92 1011.3
20260510075128 52 256 0.0 2.6 0.02 0.02 0.02 92 1011.3
20260510074656 52 154 0.0 6.1 0.02 0.02 0.02 92 1011.1
20260510074502 51 301 0.0 6.1 0.02 0.02 0.02 92 1011.5
20260510074143 52 266 0.0 6.1 0.02 0.02 0.02 92 1011.4
20260510073652 51 271 0.9 3.5 0.02 0.02 0.02 92 1011.9
20260510073142 52 280 0.0 1.7 0.02 0.02 0.02 91 1011.6
20260510073007 51 280 0.0 1.7 0.02 0.02 0.02 91 1011.8
20260510072628 52 183 0.0 7.0 0.02 0.02 0.02 91 1011.4
20260510072128 52 332 0.9 7.0 0.01 0.01 0.01 90 1011.4
20260510071636 52 217 0.9 5.2 0.01 0.01 0.01 90 1011.7
20260510071519 52 339 0.0 7.0 0.01 0.01 0.01 90 1011.9
20260510070632 53 276 0.9 7.0 0.00 0.00 0.00 88 1011.8
20260510070131 53 252 0.0 7.0 0.00 0.00 0.00 87 1011.7
20260510065620 53 253 0.0 7.0 0.00 0.00 0.00 86 1011.7
20260510065134 54 265 0.0 6.1 0.00 0.00 0.00 84 1011.6
20260510064623 54 276 0.9 8.7 0.00 0.00 0.00 83 1011.7
20260510064501 53 107 0.0 8.7 0.00 0.00 0.00 83 1012.1
20260510064137 54 354 0.9 8.7 0.00 0.00 0.00 83 1011.6
20260510063620 54 320 0.0 3.5 0.00 0.00 0.00 83 1011.5
20260510063120 54 242 0.0 7.8 0.00 0.00 0.00 84 1011.3
20260510063055 53 243 0.0 7.8 0.00 0.00 0.00 84 1011.7
20260510062639 54 54 0.0 7.8 0.00 0.00 0.00 83 1011.2
20260510062121 54 277 0.0 7.0 0.00 0.00 0.00 83 1011.1
20260510061625 54 308 0.0 4.3 0.00 0.00 0.00 83 1011.1
20260510061551 53 57 0.0 4.3 0.00 0.00 0.00 83 1011.4
20260510061200 54 229 0.9 5.2 0.00 0.00 0.00 83 1011.1
20260510060636 53 305 0.9 5.2 0.00 0.00 0.00 83 1011.0
20260510060128 53 276 0.0 4.3 0.00 0.00 0.00 83 1011.0
20260510060053 53 275 0.0 4.3 0.00 0.00 0.00 83 1011.4
20260510055623 53 344 1.7 7.0 0.00 0.00 0.00 84 1011.0
20260510055129 53 25 0.9 7.0 0.00 0.00 0.00 83 1011.3
20260510054654 53 314 0.0 5.2 0.00 0.00 0.00 83 1011.1
20260510054551 53 314 0.0 5.2 0.00 0.00 0.00 83 1011.5
20260510054117 53 297 0.9 5.2 0.00 0.00 0.00 84 1011.1
20260510053623 53 84 0.0 3.5 0.00 0.00 0.00 84 1010.9
20260510053150 53 300 0.0 7.8 0.00 0.00 0.00 84 1011.2
20260510053010 52 233 0.0 7.8 0.00 0.00 0.00 85 1011.5
20260510052629 53 245 1.7 7.8 0.00 0.00 0.00 85 1011.2
20260510052138 52 223 0.0 3.5 0.00 0.00 0.00 85 1011.2
20260510051622 52 62 0.0 4.3 0.00 0.00 0.00 85 1011.2
20260510051516 51 62 0.0 5.2 0.00 0.00 0.00 85 1011.6
20260510051147 52 325 0.0 5.2 0.00 0.00 0.00 86 1011.2
20260510050635 51 295 0.0 3.5 0.00 0.00 0.00 86 1011.1
20260510050134 51 97 0.0 3.5 0.00 0.00 0.00 86 1011.2
20260510050039 51 97 0.9 3.5 0.00 0.00 0.00 86 1011.7
20260510045656 51 64 0.0 1.7 0.00 0.00 0.00 86 1011.3
20260510045141 51 271 0.0 0.0 0.00 0.00 0.00 85 1011.2
20260510044617 51 271 0.0 0.0 0.00 0.00 0.00 85 1011.2
20260510044536 51 271 0.0 0.0 0.00 0.00 0.00 85 1011.7
20260510044133 52 271 0.0 0.9 0.00 0.00 0.00 85 1011.1
20260510043627 52 47 0.0 0.9 0.00 0.00 0.00 85 1011.1
20260510043148 52 47 0.0 0.0 0.00 0.00 0.00 85 1011.1
20260510043040 51 49 0.0 0.0 0.00 0.00 0.00 85 1011.6
20260510042628 52 68 0.0 2.6 0.00 0.00 0.00 85 1011.2
20260510042125 52 17 0.0 2.6 0.00 0.00 0.00 85 1011.0
20260510041633 52 338 0.0 1.7 0.00 0.00 0.00 85 1010.9
20260510041552 51 338 0.0 1.7 0.00 0.00 0.00 85 1011.4
20260510041142 52 290 0.0 1.7 0.00 0.00 0.00 85 1010.9
20260510040636 52 260 0.0 4.3 0.00 0.00 0.00 85 1010.7
20260510040153 51 57 0.0 4.3 0.00 0.00 0.00 85 1010.7
20260510040036 51 57 0.0 4.3 0.00 0.00 0.00 85 1011.2
20260510035634 51 187 0.0 0.0 0.00 0.00 0.00 85 1010.8
20260510035133 51 351 0.0 0.0 0.00 0.00 0.00 85 1010.9
20260510034646 51 354 0.0 0.0 0.00 0.00 0.00 85 1010.9
20260510034538 51 354 0.0 0.0 0.00 0.00 0.00 85 1011.4
20260510034127 51 354 0.0 0.0 0.00 0.00 0.00 85 1011.0
20260510033633 51 353 0.0 0.0 0.00 0.00 0.00 85 1011.0
20260510033131 51 353 0.0 0.0 0.00 0.00 0.00 85 1011.2
20260510033113 51 353 0.0 0.0 0.00 0.00 0.00 85 1011.7
20260510032634 51 146 0.0 0.0 0.00 0.00 0.00 85 1011.2
20260510032117 51 324 0.0 0.9 0.00 0.00 0.00 85 1011.2
20260510031621 51 296 0.0 0.9 0.00 0.00 0.00 86 1011.3
20260510031544 51 296 0.0 0.9 0.00 0.00 0.00 85 1011.8
20260510031130 51 339 0.0 0.0 0.00 0.00 0.00 86 1011.1
20260510030629 51 249 0.0 2.6 0.00 0.00 0.00 86 1011.1
20260510030155 51 233 0.0 2.6 0.00 0.00 0.00 86 1011.2
20260510030052 50 251 0.0 2.6 0.00 0.00 0.00 86 1011.7
20260510025608 51 216 0.0 2.6 0.00 0.00 0.00 86 1011.3
20260510025129 51 325 0.0 4.3 0.00 0.00 0.00 86 1011.2
20260510024631 51 178 0.0 4.3 0.00 0.00 0.00 86 1011.1
20260510024546 50 177 0.0 4.3 0.00 0.00 0.00 86 1011.6
20260510024134 51 12 0.0 2.6 0.00 0.00 0.00 86 1011.1
20260510023623 51 294 0.0 0.0 0.00 0.00 0.00 86 1011.1
20260510023146 51 282 0.0 0.0 0.00 0.00 0.00 86 1011.1
20260510023032 50 282 0.0 0.0 0.00 0.00 0.00 86 1011.7
20260510022620 51 282 0.0 1.7 0.00 0.00 0.00 86 1011.2
20260510022116 51 296 0.0 1.7 0.00 0.00 0.00 86 1011.3
20260510021622 51 260 0.0 0.0 0.00 0.00 0.00 86 1011.4
20260510021534 50 260 0.0 0.0 0.00 0.00 0.00 86 1011.9
20260510021144 51 256 0.0 1.7 0.00 0.00 0.00 86 1011.3
20260510020626 51 256 0.0 3.5 0.00 0.00 0.00 86 1011.4
20260510020141 51 196 0.0 1.7 0.00 0.00 0.00 86 1011.6
20260510020014 50 304 0.0 1.7 0.00 0.00 0.00 86 1012.1
20260510015631 51 303 0.0 1.7 0.00 0.00 0.00 86 1011.4
20260510015132 51 18 0.0 5.2 0.00 0.00 0.00 86 1011.5
20260510014638 51 190 0.0 5.2 0.00 0.00 0.00 86 1011.6
20260510014601 50 190 0.0 5.2 0.00 0.00 0.00 85 1012.1
20260510014120 51 143 0.0 6.1 0.00 0.00 0.00 86 1011.4
20260510013627 51 143 0.0 6.1 0.00 0.00 0.00 86 1011.4
20260510013138 50 96 0.0 1.7 0.00 0.00 0.00 86 1011.6
20260510013009 50 100 0.0 1.7 0.00 0.00 0.00 86 1012.2
20260510012634 50 107 0.0 1.7 0.00 0.00 0.00 86 1011.8
20260510012125 50 228 0.0 2.6 0.00 0.00 0.00 86 1011.8
20260510011636 50 308 0.0 1.7 0.00 0.00 0.00 86 1011.7
20260510011553 50 308 0.0 1.7 0.00 0.00 0.00 86 1012.2
20260510011131 50 308 0.0 1.7 0.00 0.00 0.00 86 1011.9
20260510010633 50 281 0.0 1.7 0.00 0.00 0.00 86 1011.8
20260510010153 50 187 0.0 0.0 0.00 0.00 0.00 85 1011.8
20260510010103 50 187 0.0 0.0 0.00 0.00 0.00 85 1012.3
20260510005625 50 131 0.0 0.0 0.00 0.00 0.00 85 1011.9
20260510005130 50 131 0.0 0.0 0.00 0.00 0.00 85 1011.9
20260510004631 50 282 0.0 2.6 0.00 0.00 0.00 85 1012.0
20260510004602 50 282 0.0 2.6 0.00 0.00 0.00 85 1012.5
20260510004145 50 244 0.0 2.6 0.00 0.00 0.00 85 1012.0
20260510003620 50 307 0.0 1.7 0.00 0.00 0.00 85 1011.9
20260510003152 50 69 0.0 1.7 0.00 0.00 0.00 84 1012.0
20260510003111 50 326 0.0 0.0 0.00 0.00 0.00 85 1012.5
20260510002615 50 325 0.0 2.6 0.00 0.00 0.00 84 1011.9
20260510002128 50 68 0.9 2.6 0.00 0.00 0.00 84 1012.0
20260510001641 50 42 0.0 0.0 0.00 0.00 0.00 84 1012.0
20260510001508 50 74 0.0 0.0 0.00 0.00 0.00 84 1012.5
20260510001125 50 74 0.0 2.6 0.00 0.00 0.00 84 1011.9
20260510000632 50 23 0.0 2.6 0.00 0.00 0.00 83 1011.8
20260510000137 50 297 0.0 0.0 0.00 0.00 0.00 83 1011.8
20260510000045 50 297 0.0 0.0 0.00 0.00 0.00 83 1012.3
20260509235634 51 297 0.0 0.0 0.00 0.00 0.00 83 1011.6
20260509235115 51 270 0.0 0.0 0.00 0.00 0.00 83 1011.8
20260509234615 50 5 0.0 0.0 0.00 0.00 0.00 83 1011.7
20260509234522 50 347 0.0 0.0 0.00 0.00 0.00 83 1012.2
20260509234125 50 348 0.0 0.0 0.00 0.00 0.00 83 1011.7
20260509233621 50 347 0.0 3.5 0.00 0.00 0.00 83 1011.8
20260509233128 50 356 0.0 3.5 0.00 0.00 0.00 83 1011.7
20260509233033 50 355 0.0 3.5 0.00 0.00 0.00 83 1012.2
20260509232624 50 232 0.0 2.6 0.00 0.00 0.00 83 1011.7
20260509232122 50 5 0.0 0.0 0.00 0.00 0.00 84 1011.6
20260509231619 50 64 0.0 0.0 0.00 0.00 0.00 84 1011.6
20260509231553 50 64 0.0 0.0 0.00 0.00 0.00 84 1012.1
20260509231128 50 64 0.0 0.0 0.00 0.00 0.00 84 1011.6
20260509230616 50 65 0.0 0.9 0.00 0.00 0.00 83 1011.6
20260509230140 50 282 0.0 4.3 0.00 0.00 0.00 84 1011.7
20260509230110 50 282 0.0 4.3 0.00 0.00 0.00 84 1012.2
20260509225626 50 258 0.9 4.3 0.00 0.00 0.00 83 1011.7
20260509225117 50 249 0.0 3.5 0.00 0.00 0.00 84 1011.8
20260509224619 50 249 0.0 3.5 0.00 0.00 0.00 84 1011.7
20260509224131 50 265 0.0 0.0 0.00 0.00 0.00 84 1011.8
20260509223616 50 325 0.0 0.0 0.00 0.00 0.00 84 1011.8
20260509223130 50 282 0.0 0.0 0.00 0.00 0.00 84 1011.9
20260509223029 49 282 0.0 0.0 0.00 0.00 0.00 83 1012.3
20260509222631 50 260 0.0 0.0 0.00 0.00 0.00 83 1011.9
20260509222116 50 269 0.0 6.1 0.00 0.00 0.00 83 1012.0
20260509221629 50 260 0.0 6.1 0.00 0.00 0.00 83 1012.0
20260509221535 50 263 0.0 6.1 0.00 0.00 0.00 83 1012.6
20260509221126 50 307 0.0 2.6 0.00 0.00 0.00 82 1012.1
20260509220626 50 315 0.0 2.6 0.00 0.00 0.00 82 1012.0
20260509220130 50 226 0.0 0.0 0.00 0.00 0.00 82 1012.0
20260509220052 50 226 0.0 0.0 0.00 0.00 0.00 82 1012.5
20260509215644 50 234 0.0 0.0 0.00 0.00 0.00 82 1012.0
20260509215135 50 50 0.0 0.0 0.00 0.00 0.00 82 1012.0
20260509214621 50 49 0.0 0.0 0.00 0.00 0.00 82 1012.0
20260509214556 50 49 0.0 0.0 0.00 0.00 0.00 82 1012.5
20260509214153 50 52 0.0 2.6 0.00 0.00 0.00 83 1012.1
20260509213632 50 47 0.0 2.6 0.00 0.00 0.00 82 1012.2
20260509213135 50 249 0.0 0.0 0.00 0.00 0.00 82 1012.2
20260509213002 50 49 0.0 0.0 0.00 0.00 0.00 82 1012.8
20260509212617 50 48 0.0 0.0 0.00 0.00 0.00 83 1012.2
20260509212116 50 47 0.0 4.3 0.00 0.00 0.00 83 1012.2
20260509211612 50 262 0.0 4.3 0.00 0.00 0.00 83 1012.3
20260509211544 50 263 0.0 4.3 0.00 0.00 0.00 83 1012.8
20260509211117 50 256 0.0 0.0 0.00 0.00 0.00 83 1012.3
20260509210620 50 141 0.0 0.0 0.00 0.00 0.00 83 1012.3
20260509210138 50 141 0.0 0.0 0.00 0.00 0.00 84 1012.4
20260509210101 49 141 0.0 0.0 0.00 0.00 0.00 84 1012.9
20260509205623 50 175 0.0 0.0 0.00 0.00 0.00 83 1012.4
20260509205128 50 177 0.0 0.0 0.00 0.00 0.00 83 1012.5
20260509204627 50 245 0.0 0.0 0.00 0.00 0.00 83 1012.5
20260509204558 50 245 0.0 0.0 0.00 0.00 0.00 83 1013.1
20260509204136 50 244 0.0 2.6 0.00 0.00 0.00 82 1012.5
20260509203650 51 233 0.0 2.6 0.00 0.00 0.00 81 1012.5
20260509203124 51 327 0.0 0.0 0.00 0.00 0.00 81 1012.6
20260509203037 50 326 0.0 0.0 0.00 0.00 0.00 81 1013.2
20260509202623 51 175 0.0 0.0 0.00 0.00 0.00 81 1012.6
20260509202141 51 112 0.0 0.0 0.00 0.00 0.00 81 1012.7
20260509201635 51 112 0.0 3.5 0.00 0.00 0.00 81 1012.7
20260509201543 50 111 0.0 3.5 0.00 0.00 0.00 81 1013.2
20260509201131 51 102 0.9 3.5 0.00 0.00 0.00 80 1012.7
20260509200620 51 7 0.0 0.0 0.00 0.00 0.00 80 1012.7
20260509200129 52 247 0.0 0.0 0.00 0.00 0.00 79 1012.7
20260509200030 51 247 0.0 0.0 0.00 0.00 0.00 78 1013.3
20260509195633 52 256 0.0 0.0 0.00 0.00 0.00 77 1012.8
20260509195138 53 5 0.0 0.0 0.00 0.00 0.00 76 1012.8
20260509194623 53 24 0.0 5.2 0.00 0.00 0.00 75 1012.7
20260509194513 52 249 0.0 5.2 0.00 0.00 0.00 76 1013.2
20260509194135 53 249 0.0 5.2 0.00 0.00 0.00 74 1012.7
20260509193623 53 256 0.9 6.1 0.00 0.00 0.00 74 1012.6
20260509193130 53 230 0.0 6.1 0.00 0.00 0.00 74 1012.6
20260509193036 53 178 0.0 6.1 0.00 0.00 0.00 74 1013.2
20260509192632 53 211 0.0 2.6 0.00 0.00 0.00 75 1012.6
20260509192151 53 242 0.0 4.3 0.00 0.00 0.00 74 1012.6
20260509191617 53 216 0.9 4.3 0.00 0.00 0.00 73 1012.7
20260509191540 53 214 0.0 4.3 0.00 0.00 0.00 73 1013.2
20260509191205 53 225 0.0 4.3 0.00 0.00 0.00 72 1012.8
20260509190627 53 226 1.7 4.3 0.00 0.00 0.00 72 1012.8
20260509190131 53 185 0.0 4.3 0.00 0.00 0.00 72 1012.8
20260509190049 53 191 0.0 4.3 0.00 0.00 0.00 72 1013.3
20260509185630 53 235 0.9 3.5 0.00 0.00 0.00 72 1012.9
20260509185130 53 146 0.0 0.9 0.00 0.00 0.00 72 1012.9
20260509184632 53 146 0.0 0.9 0.00 0.00 0.00 72 1013.0
20260509184536 52 146 0.0 0.9 0.00 0.00 0.00 72 1013.6
20260509184122 53 216 0.0 3.5 0.00 0.00 0.00 73 1013.2
20260509183630 53 216 0.9 3.5 0.00 0.00 0.00 72 1013.3
20260509183134 52 288 0.0 3.5 0.00 0.00 0.00 72 1013.9
20260509183111 53 287 0.0 3.5 0.00 0.00 0.00 72 1013.3
20260509182618 53 133 0.9 3.5 0.00 0.00 0.00 71 1013.4
20260509182117 52 283 0.0 3.5 0.00 0.00 0.00 72 1013.4
20260509181624 52 237 0.9 3.5 0.00 0.00 0.00 71 1013.4
20260509181542 52 277 0.0 3.5 0.00 0.00 0.00 71 1014.0
20260509181149 52 241 0.0 3.5 0.00 0.00 0.00 71 1013.4
20260509180652 52 262 0.0 1.7 0.00 0.00 0.00 71 1013.5
20260509180129 52 14 0.0 4.3 0.00 0.00 0.00 70 1013.4
20260509180050 52 5 0.0 4.3 0.00 0.00 0.00 70 1014.0
20260509175626 52 157 0.9 4.3 0.00 0.00 0.00 69 1013.4
20260509175138 53 211 0.0 3.5 0.00 0.00 0.00 67 1013.5
20260509174653 53 176 0.0 3.5 0.00 0.00 0.00 66 1013.5
20260509174532 53 296 0.0 3.5 0.00 0.00 0.00 66 1014.1
20260509174133 54 312 0.0 7.0 0.00 0.00 0.00 63 1013.5
20260509173645 54 225 1.7 7.0 0.00 0.00 0.00 60 1013.5
20260509173141 55 206 1.7 3.5 0.00 0.00 0.00 59 1013.5
20260509173020 54 195 0.0 2.6 0.00 0.00 0.00 59 1014.2
20260509172643 55 147 0.0 0.9 0.00 0.00 0.00 58 1013.5
20260509172124 55 259 0.0 1.7 0.00 0.00 0.00 57 1013.5
20260509171628 56 244 0.0 3.5 0.00 0.00 0.00 57 1013.6
20260509171532 55 295 0.0 3.5 0.00 0.00 0.00 57 1014.1
20260509171144 56 218 0.9 5.2 0.00 0.00 0.00 54 1013.5
20260509170620 57 268 0.0 5.2 0.00 0.00 0.00 53 1013.5
20260509170123 57 247 0.0 5.2 0.00 0.00 0.00 53 1013.4
20260509170020 57 240 0.0 5.2 0.00 0.00 0.00 53 1014.1
20260509165629 57 286 0.0 5.2 0.00 0.00 0.00 51 1013.5
20260509165142 57 305 0.9 4.3 0.00 0.00 0.00 49 1013.5
20260509164627 58 5 0.0 2.6 0.00 0.00 0.00 49 1013.5
20260509164520 57 5 0.0 2.6 0.00 0.00 0.00 48 1014.1
20260509164143 58 5 0.0 4.3 0.00 0.00 0.00 47 1013.5
20260509163628 58 8 0.0 4.3 0.00 0.00 0.00 49 1013.6
20260509163122 58 309 0.9 2.6 0.00 0.00 0.00 48 1013.6
20260509163011 57 343 0.0 2.6 0.00 0.00 0.00 47 1014.2
20260509162652 58 154 0.0 0.0 0.00 0.00 0.00 47 1013.6
20260509162132 57 171 0.0 1.7 0.00 0.00 0.00 45 1013.7
20260509161615 57 347 0.0 5.2 0.00 0.00 0.00 46 1013.8
20260509161508 56 347 0.0 5.2 0.00 0.00 0.00 45 1014.4
20260509161130 57 356 1.7 5.2 0.00 0.00 0.00 45 1013.8
20260509160639 57 299 0.0 3.5 0.00 0.00 0.00 43 1013.9
20260509160125 57 276 0.0 3.5 0.00 0.00 0.00 42 1014.0
20260509160052 57 276 0.0 3.5 0.00 0.00 0.00 42 1014.7
20260509155629 57 311 0.0 3.5 0.00 0.00 0.00 43 1014.0
20260509155128 58 24 0.9 6.1 0.00 0.00 0.00 41 1014.1
20260509154614 58 347 0.9 6.1 0.00 0.00 0.00 40 1014.1
20260509154526 58 218 0.0 3.5 0.00 0.00 0.00 39 1014.8
20260509154135 59 224 0.0 6.1 0.00 0.00 0.00 38 1014.2
20260509153623 59 353 0.9 6.1 0.00 0.00 0.00 40 1014.1
20260509153135 59 263 0.0 3.5 0.00 0.00 0.00 40 1014.2
20260509153020 59 263 0.0 3.5 0.00 0.00 0.00 38 1014.9
20260509152642 60 266 0.0 3.5 0.00 0.00 0.00 39 1014.2
20260509152122 60 357 0.0 4.3 0.00 0.00 0.00 37 1014.3
20260509151626 60 6 0.0 4.3 0.00 0.00 0.00 43 1014.3
20260509151541 60 6 0.0 4.3 0.00 0.00 0.00 44 1015.0
20260509151130 59 89 0.0 0.0 0.00 0.00 0.00 45 1014.4
20260509150649 58 354 0.0 1.7 0.00 0.00 0.00 42 1014.4
20260509150117 58 292 0.0 4.3 0.00 0.00 0.00 39 1014.5
20260509150023 58 166 0.0 4.3 0.00 0.00 0.00 38 1015.2
20260509145614 59 280 0.9 4.3 0.00 0.00 0.00 38 1014.5
20260509145132 58 317 0.0 7.0 0.00 0.00 0.00 43 1014.3
20260509144630 58 349 2.6 7.0 0.00 0.00 0.00 41 1014.3
20260509144537 57 356 2.6 7.0 0.00 0.00 0.00 42 1015.0
20260509144119 58 346 2.6 6.1 0.00 0.00 0.00 42 1014.5
20260509143636 57 349 1.7 6.1 0.00 0.00 0.00 44 1014.6
20260509143132 57 287 0.0 4.3 0.00 0.00 0.00 42 1014.6
20260509143038 57 224 0.0 4.3 0.00 0.00 0.00 42 1015.3
20260509142628 57 299 0.0 4.3 0.00 0.00 0.00 41 1014.6
20260509142126 57 342 0.0 3.5 0.00 0.00 0.00 44 1014.7
20260509141651 57 285 0.0 2.6 0.00 0.00 0.00 46 1014.8
20260509141611 56 214 0.0 2.6 0.00 0.00 0.00 46 1015.5
20260509141142 56 346 0.0 5.2 0.00 0.00 0.00 45 1014.8
20260509140626 56 328 0.9 5.2 0.00 0.00 0.00 47 1014.7
20260509140133 56 237 0.9 4.3 0.00 0.00 0.00 44 1014.8
20260509140027 55 270 0.0 4.3 0.00 0.00 0.00 44 1015.4
20260509135626 56 335 0.0 5.2 0.00 0.00 0.00 46 1014.7
20260509135145 56 340 1.7 5.2 0.00 0.00 0.00 42 1014.7
20260509134620 56 268 0.0 2.6 0.00 0.00 0.00 43 1014.8
20260509134601 55 268 0.0 2.6 0.00 0.00 0.00 43 1015.6
20260509134114 56 206 0.0 3.5 0.00 0.00 0.00 44 1014.9
20260509133647 56 305 0.9 5.2 0.00 0.00 0.00 44 1014.9
20260509133130 55 304 1.7 5.2 0.00 0.00 0.00 44 1015.0
20260509133105 55 252 0.9 4.3 0.00 0.00 0.00 44 1015.7
20260509132629 55 275 0.0 4.3 0.00 0.00 0.00 45 1014.9
20260509132125 54 25 0.9 7.0 0.00 0.00 0.00 44 1015.0
20260509131633 54 275 1.7 7.0 0.00 0.00 0.00 45 1015.1
20260509131528 54 282 0.0 2.6 0.00 0.00 0.00 44 1015.7
20260509131132 54 127 0.0 2.6 0.00 0.00 0.00 47 1015.1
20260509130655 53 277 0.0 3.5 0.00 0.00 0.00 48 1015.1
20260509130123 53 224 0.9 3.5 0.00 0.00 0.00 51 1015.2
20260509130036 52 294 0.0 3.5 0.00 0.00 0.00 51 1016.0
20260509125623 52 146 0.9 2.6 0.00 0.00 0.00 51 1015.1
20260509125132 50 259 0.0 3.5 0.00 0.00 0.00 56 1015.2
20260509124520 48 251 0.0 4.3 0.00 0.00 0.00 64 1016.1
20260509124145 47 221 0.0 3.5 0.00 0.00 0.00 68 1015.3
20260509123627 46 242 0.0 3.5 0.00 0.00 0.00 71 1015.3